• Processing (Info)

  • MPEC 2019-V99 : 2019 VQ3

    The following Minor Planet Electronic Circular may be linked-to from your own Web pages, but must not otherwise be redistributed electronically.

    A form allowing access to any MPEC is at the bottom of this page.


    Read MPEC 2019-V98 Read MPEC 2019-V100


    M.P.E.C. 2019-V99                              Issued 2019 November 6, 23:15 UT
    
         The Minor Planet Electronic Circulars contain information on unusual
             minor planets and routine data on comets.  They are published
        on behalf of Division F of the International Astronomical Union by the
              Minor Planet Center, Smithsonian Astrophysical Observatory,
                              Cambridge, MA 02138, U.S.A.
    
                 Prepared using the Tamkin Foundation Computer Network
    
                                  MPC@CFA.HARVARD.EDU
                URL https://www.minorplanetcenter.net/    ISSN 1523-6714
    
                                    2019 VQ3                                 
    
    
    Observations:
         K19V03Q* C2019 11 05.25233 02 20 52.40 +18 46 00.9                VEV099G96
         K19V03Q  C2019 11 05.25751 02 20 58.59 +18 48 22.3                VEV099G96
         K19V03Q  C2019 11 05.26268 02 21 04.84 +18 50 43.7          20.0 GVEV099G96
         K19V03Q  C2019 11 05.26785 02 21 11.12 +18 53 05.7          20.0 GVEV099G96
         K19V03Q  C2019 11 05.35845 02 23 01.00 +19 34 01.7          19.6 GVEV099I52
         K19V03Q  C2019 11 05.35903 02 23 01.65 +19 34 17.2          20.1 GVEV099I52
         K19V03Q  C2019 11 05.35959 02 23 02.35 +19 34 32.3          20.0 GVEV099I52
         K19V03Q  C2019 11 05.36015 02 23 03.02 +19 34 47.2          19.8 GVEV099I52
         K19V03Q  C2019 11 05.50582002 26 13.673+20 41 24.87         19.5 GVEV099F51
         K19V03Q  C2019 11 05.50650402 26 14.525+20 41 42.80         20.4 GVEV099F51
         K19V03Q  C2019 11 05.51807902 26 28.881+20 46 51.67         19.7 GVEV099F51
         K19V03Q  C2019 11 05.53033202 26 44.179+20 52 18.05         20.0 GVEV099F51
         K19V03Q  C2019 11 05.54265702 26 59.619+20 57 44.76         19.7 GVEV099F51
         K19V03Q  C2019 11 06.16406 02 41 38.19 +25 31 12.2          19.3 GVEV099I52
         K19V03Q  C2019 11 06.16430 02 41 38.52 +25 31 19.8          20.3 GVEV099G96
         K19V03Q  C2019 11 06.16459 02 41 38.93 +25 31 27.3          20.6 GVEV099G96
         K19V03Q  C2019 11 06.16488 02 41 39.28 +25 31 34.9          19.9 GVEV099G96
         K19V03Q  C2019 11 06.16517 02 41 39.69 +25 31 42.1          20.2 GVEV099G96
         K19V03Q  C2019 11 06.16518 02 41 39.71 +25 31 42.9          20.6 GVEV099I52
         K19V03Q  C2019 11 06.16631 02 41 41.19 +25 32 11.5          20.3 GVEV099I52
    
    Observer details:
    F51 Pan-STARRS 1, Haleakala.  Observers J. Bulger, K. Chambers, T. Lowe, E. 
       Magnier, A. Schultz, M. Willman.  Measurers S. Chastel, M. Huber, Y. 
       Ramanjooloo, R. Wainscoat, R. Weryk.  1.8-m Ritchey-Chretien + CCD.
    G96 Mt. Lemmon Survey.  Observer E. J. Christensen.  Measurers E. J. 
       Christensen, G. A. Farneth, D. C. Fuls, A. R. Gibbs, A. D. Grauer, H. 
       Groeller, R. A. Kowalski, S. M. Larson, G. J. Leonard, T. A. Pruyne, D. 
       Rankin, R. L. Seaman, F. C. Shelly, K. W. Wierzchos.  1.5-m reflector + 10K 
       CCD.
    I52 Steward Observatory, Mt. Lemmon Station.  Observer D. Rankin.  Measurers E. 
       J. Christensen, G. A. Farneth, D. C. Fuls, A. R. Gibbs, A. D. Grauer, H. 
       Groeller, R. A. Kowalski, S. M. Larson, G. J. Leonard, T. A. Pruyne, D. 
       Rankin, R. L. Seaman, F. C. Shelly, K. W. Wierzchos.  1.0-m reflector + CCD.
    
    Orbital elements:
    2019 VQ3                                                 Earth MOID = 0.0315 AU
    Epoch 2019 Apr. 27.0 TT = JDT 2458600.5                 Bell
    M 315.14670              (2000.0)            P               Q
    n   0.23175663     Peri.    2.50578     +0.72313810     -0.68461862
    a   2.6249112      Node    41.20319     +0.63126843     +0.60133991
    e   0.6102665      Incl.    7.98266     +0.28030600     +0.41193161
    P   4.25           H   27.2           G   0.15           U   5
    Residuals in seconds of arc
    191105 G96  0.5+  0.0     191105 I52  0.3-  0.3-    191106 G96  0.0   0.5+
    191105 G96  0.3-  0.2-    191105 F51  0.1+  0.2+    191106 G96  0.3+  0.4+
    191105 G96  0.0   0.1-    191105 F51  0.1+  0.1-    191106 G96  0.2-  0.3+
    191105 G96  0.6+  0.8+    191105 F51  0.0   0.1+    191106 G96  0.1+  0.1-
    191105 I52  0.6+  0.0     191105 F51  0.1+  0.3+    191106 I52  0.2+  0.4+
    191105 I52  0.3-  0.1-    191105 F51  0.3-  0.4-    191106 I52  0.1-  0.8-
    191105 I52  0.1-  0.1-    191106 I52  0.2-  0.8-
    
    Ephemeris:
    2019 VQ3                 a,e,i = 2.62, 0.61, 8                   q = 1.0230
    Date    TT    R. A. (2000) Decl.     Delta      r    Elong.  Phase     V
    2019 10 07    23 13 48.5 -41 39 16   0.1496  1.0989   128.4    45.5    25.0
    ...
    2019 10 22    23 45 49.2 -35 21 48   0.07818 1.0434   126.1    50.5    23.6
    ...
    2019 10 30    00 41 25.2 -19 01 42   0.04435 1.0277   140.2    38.3    22.0
    ...
    2019 11 05    02 15 22.0 +16 52 00   0.03147 1.0230   174.3     5.5    20.2
    2019 11 06    02 37 35.5 +24 20 41   0.03175 1.0228   171.3     8.4    20.3
    2019 11 07    03 01 29.2 +31 17 47   0.03281 1.0228   164.4    15.2    20.7
    ...
    2019 11 13    05 28 55.4 +53 38 20   0.05069 1.0263   135.2    42.8    22.4
    ...
    2019 11 21    07 19 13.9 +57 21 29   0.08596 1.0405   125.7    50.5    23.8
    ...
    2019 12 06    08 10 42.1 +56 00 09   0.1579  1.0936   130.0    43.7    25.1
    
    A. U. Tomatic                (C) Copyright 2019 MPC           M.P.E.C. 2019-V99
    


    Read MPEC 2019-V98 Read MPEC 2019-V100


    MPEC number:

    Enter an MPEC number in one of the following forms:

    • 1997-B01 (the full form)
    • J97B01 (the packed version of the full form)
    • B01 (the abbreviated form)